Location: Casteau
(50.5142°N, 4.0161°E)
Time: 02:15:50
(UTC+00:00)

S-56A Canister/Altair - Pass Details

Date: 09 August 2021
Orbit: 632 x 2500 km, 38.9° (Epoch: 16 September)

Event Time Altitude Azimuth Distance (km) Brightness Sun altitude
Rises 12:46:10 0° 234° (SW) 4,754 12.0 53.3°
Reaches altitude 10° 12:49:09 10° 228° (SW) 4,005 11.9 53.2°
Maximum altitude 12:59:28 44° 161° (SSE) 2,772 11.5 52.4°
Drops below altitude 10° 13:12:48 10° 97° (E) 5,134 11.7 51.3°
Sets 13:17:11 0° 92° (E) 6,181 11.9 50.9°
